TimeCDT,TemperatureF,Dew PointF,Humidity,Sea Level PressureIn,VisibilityMPH,Wind Direction,Wind SpeedMPH,Gust SpeedMPH,PrecipitationIn,Events,Conditions,WindDirDegrees,DateUTC
12:53 AM,45.0,43.0,93,30.17,10.0,North,15.0,-,0.03,,Overcast,10,2012-10-06 05:53:00
1:53 AM,45.0,42.1,90,30.18,10.0,North,11.5,19.6,0.02,,Overcast,10,2012-10-06 06:53:00
2:07 AM,44.6,42.8,93,30.19,10.0,North,12.7,-,N/A,,Overcast,10,2012-10-06 07:07:00
2:37 AM,44.6,42.8,93,30.17,10.0,NNE,15.0,19.6,0.01,,Overcast,20,2012-10-06 07:37:00
2:53 AM,44.1,41.0,89,30.18,10.0,North,11.5,-,0.01,,Scattered Clouds,360,2012-10-06 07:53:00
3:53 AM,43.0,41.0,93,30.19,10.0,North,11.5,-,0.02,,Clear,10,2012-10-06 08:53:00
4:53 AM,43.0,39.9,89,30.20,10.0,North,11.5,-,N/A,,Clear,10,2012-10-06 09:53:00
5:53 AM,42.1,39.9,92,30.22,10.0,North,9.2,-,0.01,,Clear,10,2012-10-06 10:53:00
6:53 AM,41.0,39.0,93,30.24,10.0,North,8.1,-,N/A,,Clear,10,2012-10-06 11:53:00
7:53 AM,43.0,39.9,89,30.26,10.0,NNE,9.2,-,N/A,,Clear,20,2012-10-06 12:53:00
9:53 AM,48.9,39.0,69,30.25,10.0,NE,11.5,18.4,N/A,,Clear,40,2012-10-06 14:53:00
10:53 AM,53.1,33.1,47,30.21,10.0,ENE,12.7,18.4,N/A,,Clear,60,2012-10-06 15:53:00
11:53 AM,54.0,32.0,43,30.19,10.0,ENE,11.5,19.6,N/A,,Clear,60,2012-10-06 16:53:00
12:53 PM,57.0,32.0,39,30.21,10.0,North,12.7,16.1,N/A,,Clear,360,2012-10-06 17:53:00
1:53 PM,59.0,33.1,38,30.20,10.0,NNE,13.8,18.4,N/A,,Clear,20,2012-10-06 18:53:00
2:53 PM,55.9,30.9,39,30.19,10.0,North,12.7,-,N/A,,Overcast,10,2012-10-06 19:53:00
3:53 PM,53.1,39.0,59,30.18,10.0,North,9.2,-,0.00,Rain,Light Rain,360,2012-10-06 20:53:00
4:53 PM,52.0,39.0,61,30.17,10.0,North,9.2,-,0.00,Rain,Light Rain,360,2012-10-06 21:53:00
5:53 PM,50.0,41.0,71,30.15,10.0,NNE,9.2,-,0.00,,Overcast,20,2012-10-06 22:53:00
6:53 PM,48.0,42.1,80,30.19,10.0,North,5.8,-,0.02,Rain,Light Rain,360,2012-10-06 23:53:00
7:53 PM,46.9,43.0,86,30.21,10.0,North,4.6,-,0.00,Rain,Light Rain,360,2012-10-07 00:53:00
8:53 PM,48.0,43.0,83,30.22,10.0,North,4.6,-,0.00,,Overcast,360,2012-10-07 01:53:00
9:53 PM,48.0,43.0,83,30.21,10.0,North,5.8,-,N/A,,Overcast,360,2012-10-07 02:53:00
11:53 PM,46.9,39.9,77,30.22,10.0,North,11.5,-,0.00,,Overcast,10,2012-10-07 04:53:00